Mountain Home, ID

1:25 AM MDT on October 20, 2017 (GMT -0600)
Mountain Home Air Force Base

Weather History for KMUO - August, 2014

Change the Weather History Date:

Saturday, August 30, 2014

  Actual Average Record
Temperature  
Mean Temperature 68 °F 70 °F  
Max Temperature 81 °F 87 °F 105 °F (1998)
Min Temperature 55 °F 52 °F 26 °F (1912)
Degree Days  
Heating Degree Days 0 1  
Month to date heating degree days 1 7  
Cooling Degree Days 3 6  
Month to date cooling degree days 276 304  
Growing Degree Days 18 (Base 50)    
Moisture  
Dew Point 46 °F    
Average Humidity 51    
Maximum Humidity 94    
Minimum Humidity 23    
Precipitation  
Precipitation 0.10 in 0.01 in 0.50 in (1922)
Month to date precipitation 0.55 0.13  
Sea Level Pressure  
Sea Level Pressure 29.84 in    
Wind  
Wind Speed 17 mph (NW)    
Max Wind Speed 41 mph    
Max Gust Speed 52 mph    
Visibility 9 miles    
Events Rain    
T = Trace of Precipitation, MM = Missing Value Source: NWS Daily Summary

Daily Weather History Graph

Daily Weather History Graph

Search for Another Location

Airport or City:

Trip Planner

Search our weather history database for the weather conditions in past years. The results will help you decide how hot, cold, wet, or windy it might be!

Date:

Astronomy

Aug. 30, 2014 Rise Set
Actual Time 7:05 AM MDT 8:21 PM MDT
Civil Twilight 6:36 AM MDT 8:50 PM MDT
Nautical Twilight 6:01 AM MDT 9:25 PM MDT
Astronomical Twilight 5:23 AM MDT 10:03 PM MDT
Moon 12:06 PM MDT (8/30) 10:49 PM MDT (8/30)
Length of Visible Light 14h 14m
Length of Day
13h 15m
Waxing Crescent, 23% of the Moon is Illuminated
Aug 30
Waxing Crescent
Sep 2
First Quarter
Sep 8
Full
Sep 15
Last Quarter
Sep 24
New

Hourly Weather History & Observations

Time (MDT) Temp. Dew Point Humidity Pressure Visibility Wind Dir Wind Speed Gust Speed Precip Events Conditions
12:58 AM 70.2 °F 47.8 °F 45% 29.73 in 10.0 mi NNE 8.1 mph - N/A   Clear
1:58 AM 68.9 °F 47.7 °F 47% 29.72 in 10.0 mi NE 5.8 mph - N/A   Clear
2:58 AM 70.9 °F 45.1 °F 40% 29.72 in 10.0 mi NNW 6.9 mph - N/A   Clear
3:58 AM 69.4 °F 41.7 °F 37% 29.73 in 10.0 mi NW 17.3 mph - N/A   Scattered Clouds
4:58 AM 67.3 °F 41.2 °F 39% 29.74 in 10.0 mi NW 15.0 mph - N/A   Partly Cloudy
5:58 AM 67.1 °F 41.7 °F 40% 29.77 in 10.0 mi NW 13.8 mph - N/A   Mostly Cloudy
6:58 AM 67.1 °F 41.4 °F 39% 29.79 in 10.0 mi NW 13.8 mph - N/A   Overcast
7:58 AM 66.4 °F 41.2 °F 40% 29.82 in 10.0 mi NW 17.3 mph - N/A   Mostly Cloudy
9:58 AM 68.2 °F 41.2 °F 37% 29.85 in 10.0 mi NNW 18.4 mph - N/A   Partly Cloudy
10:58 AM 71.8 °F 40.8 °F 33% 29.86 in 10.0 mi NNW 17.3 mph - N/A   Partly Cloudy
11:58 AM 74.1 °F 41.2 °F 31% 29.86 in 10.0 mi WNW 15.0 mph 23.0 mph N/A   Clear
12:58 PM 75.9 °F 41.0 °F 29% 29.85 in 10.0 mi NW 16.1 mph 19.6 mph N/A   Partly Cloudy
2:58 PM 80.2 °F 39.7 °F 24% 29.79 in 10.0 mi NW 12.7 mph 19.6 mph N/A   Partly Cloudy
3:58 PM 79.9 °F 39.6 °F 24% 29.78 in 10.0 mi NW 16.1 mph - N/A   Partly Cloudy
4:32 PM 80.6 °F 39.2 °F 23% 29.85 in 10.0 mi North 11.5 mph 19.6 mph N/A   Partly Cloudy
4:46 PM 78.8 °F 37.4 °F 23% 29.85 in 10.0 mi NW 15.0 mph - N/A   Partly Cloudy
4:58 PM 79.5 °F 38.7 °F 23% 29.77 in 10.0 mi NNW 16.1 mph - N/A   Partly Cloudy
5:58 PM 78.6 °F 39.4 °F 24% 29.76 in 10.0 mi NNW 11.5 mph 18.4 mph N/A   Clear
6:58 PM 78.3 °F 39.4 °F 25% 29.75 in 10.0 mi NNW 9.2 mph - N/A   Overcast
7:58 PM 77.7 °F 39.7 °F 26% 29.74 in 10.0 mi NW 11.5 mph - N/A   Mostly Cloudy
8:58 PM 73.8 °F 39.4 °F 29% 29.84 in 10.0 mi NW 18.4 mph 28.8 mph 0.00 in   Mostly Cloudy
9:13 PM 71.6 °F 42.8 °F 35% 29.87 in 3.0 mi WNW 41.4 mph 51.8 mph N/A   Light Drizzle
9:18 PM 68.0 °F 50.0 °F 52% 29.87 in 2.0 mi NW 34.5 mph 51.8 mph N/A   Light Drizzle
9:23 PM 64.4 °F 51.8 °F 64% 29.88 in 4.0 mi NW 41.4 mph 49.5 mph N/A Rain Light Rain
9:28 PM 62.6 °F 50.0 °F 63% 29.90 in 7.0 mi NW 40.3 mph 49.5 mph N/A   Light Drizzle
9:38 PM 62.6 °F 50.0 °F 63% 29.91 in 10.0 mi NW 33.4 mph 47.2 mph N/A   Overcast
9:48 PM 60.8 °F 53.6 °F 77% 29.90 in 7.0 mi NW 35.7 mph 44.9 mph N/A Rain Light Rain
9:58 PM 59.2 °F 54.1 °F 83% 29.92 in 9.0 mi NW 33.4 mph 43.7 mph 0.00 in Rain Light Rain
10:23 PM 57.2 °F 55.4 °F 94% 29.94 in 5.0 mi NW 28.8 mph 33.4 mph N/A Rain Rain
10:28 PM 57.2 °F 55.4 °F 94% 29.91 in 3.0 mi NNW 32.2 mph - N/A Rain Heavy Rain
10:33 PM 57.2 °F 55.4 °F 94% 29.90 in 3.0 mi NNW 32.2 mph - N/A Rain Heavy Rain
10:38 PM 57.2 °F 55.4 °F 94% 29.90 in 6.0 mi NNW 32.2 mph 38.0 mph N/A Rain Light Rain
10:53 PM 57.2 °F 55.4 °F 94% 29.94 in 10.0 mi NW 24.2 mph 32.2 mph N/A Rain Light Rain
10:58 PM 57.7 °F 54.9 °F 90% 29.93 in 10.0 mi NNW 23.0 mph 32.2 mph 0.10 in Rain Light Rain
11:18 PM 59.0 °F 53.6 °F 82% 29.91 in 10.0 mi NNW 13.8 mph - N/A   Light Drizzle
11:58 PM 57.9 °F 55.0 °F 90% 29.88 in 10.0 mi NW 12.7 mph - 0.00 in   Overcast